Lid_Strength_Index
2 2 2 2 2 2 2 2 2 2 2 2 3 3 3 3 4 8 11 9 6 4 5 10 12 12 12 14 15 16 19 21 19 19 18 17 17 16 15 16 16 15 16 15 13
3 2 2 2 2 2 2 2 2 2 2 3 3 3 3 3 9 10 7 5 5 5 11 12 13 12 14 15 15 17 20 19 18 19 18 17 18 17 17 17 16 16 15 14 13
3 3 2 2 2 2 2 2 2 3 3 3 3 3 3 5 12 11 6 5 5 7 10 11 12 12 15 15 16 17 19 18 17 17 17 17 18 17 18 18 16 16 15 15 15
3 3 3 2 2 2 2 2 3 3 3 3 3 4 4 9 16 11 6 5 5 9 11 12 13 15 16 17 15 18 16 16 15 15 16 17 17 17 17 16 15 15 15 15 15
3 3 3 2 2 2 2 2 3 4 4 4 4 4 8 13 13 9 6 7 9 10 12 13 14 15 17 16 16 18 17 15 16 16 17 16 17 17 16 15 15 15 15 15 15
2 2 2 2 2 2 2 2 3 4 4 4 4 5 11 16 10 10 10 9 10 11 12 12 14 14 16 17 17 16 16 16 15 16 16 17 18 17 15 17 16 16 16 15 15
2 2 2 2 2 2 2 2 3 4 4 4 4 7 11 14 11 10 10 11 10 10 12 12 12 14 15 17 15 16 18 17 16 16 17 17 18 18 15 16 16 17 16 16 16
1 2 2 2 2 2 2 2 4 5 4 5 5 10 15 11 11 10 10 11 10 10 10 11 11 13 15 14 15 17 18 20 17 17 17 17 20 15 15 17 17 17 18 17 16
3 3 3 3 3 2 2 3 5 5 5 5 10 12 15 8 12 10 10 11 11 11 10 9 11 14 14 18 19 19 21 20 18 16 17 18 20 15 16 18 17 18 18 18 18
4 4 3 3 3 2 2 5 5 6 7 7 11 13 12 14 12 11 11 10 12 12 12 13 14 17 17 19 22 21 21 19 20 18 18 19 20 16 15 18 18 18 18 18 18
4 4 4 3 3 2 8 11 11 12 12 13 14 14 13 12 11 12 11 12 12 14 17 15 18 19 18 17 17 18 19 20 19 18 19 19 20 18 16 18 18 18 19 19 18
5 4 4 4 3 5 10 13 13 13 13 12 13 13 12 12 15 13 11 15 15 17 16 17 19 16 15 16 17 18 19 20 18 18 19 20 20 18 17 18 19 19 19 18 19
5 5 5 4 3 9 12 12 10 10 14 12 14 14 14 13 15 14 12 14 16 17 17 18 16 14 15 17 17 18 19 19 20 19 20 21 22 21 18 19 19 18 19 18 18
4 4 4 3 6 11 12 9 8 10 17 15 16 14 13 13 16 12 12 13 15 16 17 17 15 15 16 17 17 20 17 17 18 22 24 20 27 21 19 19 18 17 18 19 20
4 4 4 3 7 10 10 9 9 11 24 16 16 12 13 15 15 14 11 13 16 16 16 17 16 16 18 17 16 19 17 18 19 23 26 22 25 22 21 20 18 18 17 19 20
4 4 4 6 9 10 9 10 10 17 23 17 16 16 15 15 15 14 13 12 13 15 15 16 14 15 16 16 16 16 18 18 20 22 28 23 24 22 22 21 19 18 18 17 19
4 4 6 7 10 9 10 11 19 22 15 17 17 15 15 16 15 14 14 15 17 19 18 15 16 15 14 17 16 17 18 21 26 29 26 22 24 20 20 20 21 21 19 21 20
4 5 7 8 7 9 10 14 23 23 20 14 15 13 16 15 14 14 16 16 13 15 18 20 21 18 15 17 17 17 18 21 28 29 24 22 25 19 20 24 25 23 23 20 19
3 6 7 8 7 9 12 22 22 19 13 14 14 17 16 14 15 15 15 15 15 15 20 22 21 17 16 16 16 18 20 19 27 27 25 23 20 18 18 21 23 22 19 19 20
4 6 7 7 8 8 14 18 19 12 11 12 18 14 16 14 17 16 17 15 16 14 15 18 23 17 17 16 17 17 17 21 22 25 28 24 25 23 23 22 21 22 20 20 20
4 10 8 6 6 9 19 21 14 11 11 13 14 16 14 15 14 16 16 14 14 14 15 17 19 19 17 19 19 19 19 20 20 25 28 28 24 23 24 24 22 20 19 22 22
5 13 7 5 10 13 17 15 11 12 12 12 12 13 14 17 16 16 16 15 12 12 17 16 17 21 19 18 17 18 19 19 24 27 31 28 23 25 25 28 27 21 19 21 22
8 10 7 5 13 15 12 12 12 13 12 12 13 13 16 16 16 15 14 13 12 14 16 15 18 22 21 19 18 20 20 22 24 24 27 26 23 26 30 24 21 22 21 22 21
8 13 10 9 10 13 13 12 14 10 11 11 11 11 14 15 16 15 14 13 12 13 11 12 17 19 21 20 20 21 22 22 21 28 28 26 23 16 18 21 18 21 23 26 26
8 17 17 15 12 12 12 16 15 14 11 10 12 13 13 16 16 15 14 14 12 12 12 14 21 19 18 18 18 19 20 21 20 24 22 26 28 19 18 19 20 28 26 25 25
9 13 11 19 13 12 11 15 14 12 12 13 14 14 13 15 13 17 15 15 15 14 15 15 20 19 20 19 22 21 21 21 19 20 24 26 20 19 24 32 26 23 27 25 27
6 7 10 14 15 14 14 13 12 11 11 11 13 12 13 14 13 13 13 12 13 16 16 17 20 22 24 20 20 23 23 27 27 28 23 24 21 31 21 22 23 21 27 24 24